|
NORAD ID: 10935 Int'l Code: 1978-056F
Perigee: 1,449.6 km
Apogee: 1,495.0 km
Inclination: 74.0 °
Period: 115.2 minutes
Semi major axis: 7843 km
Launch date: June 7, 1978
Source: Commonwealth of Independent States (former USSR) (CIS)
Two Line Element Set (TLE):
1 10935U 78056F 13140.16124736 .00000036 00000-0 34379-3 0 7933
2 10935 074.0254 195.7344 0028999 038.2078 019.7925 12.49840180594783
Source:
NASA's NSSDC Master Catalog entry for COSMOS 1018
|